Ellsworth AFB, SD

1:33 PM MDT on June 25, 2017 (GMT -0600)
Ellsworth Air Force Base

Weather History for KRCA - February, 2014

Change the Weather History Date:

Thursday, February 13, 2014

  Actual Average Record
Temperature  
Mean Temperature 40 °F -  
Max Temperature 49 °F 38 °F 66 °F (1999)
Min Temperature 32 °F 18 °F -11 °F (2007)
Degree Days  
Heating Degree Days 24    
Moisture  
Dew Point 28 °F    
Average Humidity 62    
Maximum Humidity 93    
Minimum Humidity 38    
Precipitation  
Precipitation 0.02 in - - ()
Sea Level Pressure  
Sea Level Pressure 29.71 in    
Wind  
Wind Speed 16 mph (NW)    
Max Wind Speed 34 mph    
Max Gust Speed 41 mph    
Visibility 10 miles    
Events Rain    
Averages and records for this station are not official NWS values.
T = Trace of Precipitation, MM = Missing Value Source: NWS Daily Summary

Daily Weather History Graph

Daily Weather History Graph

Search for Another Location

Airport or City:

Trip Planner

Search our weather history database for the weather conditions in past years. The results will help you decide how hot, cold, wet, or windy it might be!

Date:

Astronomy

Feb. 13, 2014 Rise Set
Actual Time 6:54 AM MST 5:19 PM MST
Civil Twilight 6:24 AM MST 5:49 PM MST
Nautical Twilight 5:50 AM MST 6:23 PM MST
Astronomical Twilight 5:17 AM MST 6:56 PM MST
Moon 4:29 PM MST (2/13) 5:49 AM MST (2/13)
Length of Visible Light 11h 24m
Length of Day
10h 24m
Waxing Gibbous, 99% of the Moon is Illuminated
Feb 13
Waxing Gibbous
Feb 14
Full
Feb 22
Last Quarter
Mar 1
New
Mar 8
First Quarter

Hourly Weather History & Observations

Time (MST) Temp. Windchill Dew Point Humidity Pressure Visibility Wind Dir Wind Speed Gust Speed Precip Events Conditions
12:58 AM 43.9 °F 35.2 °F 24.8 °F 47% 29.68 in 10.0 mi NW 21.9 mph - N/A   Clear
1:58 AM 42.3 °F 33.8 °F 24.8 °F 50% 29.72 in 10.0 mi NW 18.4 mph - N/A   Clear
2:58 AM 38.3 °F 30.1 °F 24.3 °F 57% 29.73 in 10.0 mi NW 13.8 mph - N/A   Clear
3:58 AM 38.3 °F 30.5 °F 24.4 °F 57% 29.75 in 10.0 mi NNW 12.7 mph - N/A   Clear
4:58 AM 36.5 °F 28.7 °F 24.6 °F 62% 29.78 in 10.0 mi NNW 11.5 mph - N/A   Clear
5:58 AM 34.9 °F 25.7 °F 23.7 °F 64% 29.81 in 10.0 mi NW 13.8 mph - N/A   Clear
6:58 AM 32.7 °F 23.4 °F 22.6 °F 66% 29.79 in 10.0 mi NW 12.7 mph - N/A   Clear
7:58 AM 33.4 °F 28.1 °F 23.0 °F 66% 29.80 in 10.0 mi WNW 5.8 mph - N/A   Clear
8:58 AM 42.4 °F 38.8 °F 23.9 °F 48% 29.77 in 10.0 mi WNW 5.8 mph - N/A   Clear
9:58 AM 45.5 °F 40.8 °F 24.8 °F 44% 29.77 in 10.0 mi NNW 9.2 mph - N/A   Clear
10:58 AM 45.1 °F 40.3 °F 27.1 °F 49% 29.74 in 10.0 mi East 9.2 mph - N/A   Partly Cloudy
11:58 AM 47.5 °F - 25.5 °F 42% 29.69 in 10.0 mi SSE 4.6 mph - N/A   Mostly Cloudy
12:58 PM 48.2 °F - 27.1 °F 44% 29.65 in 10.0 mi South 10.4 mph - N/A   Partly Cloudy
1:58 PM 49.3 °F - 25.3 °F 39% 29.61 in 10.0 mi SSE 11.5 mph - N/A   Partly Cloudy
2:58 PM 48.4 °F - 23.5 °F 38% 29.62 in 10.0 mi ESE 9.2 mph - N/A   Scattered Clouds
3:58 PM 46.6 °F - 23.4 °F 40% 29.66 in 10.0 mi North 2.3 mph - N/A   Mostly Cloudy
4:23 PM 42.8 °F 34.5 °F 28.4 °F 57% 29.67 in 10.0 mi NW 18.4 mph 31.1 mph N/A Rain Light Rain
4:33 PM 42.8 °F 35.4 °F 32.0 °F 66% 29.68 in 10.0 mi NW 15.0 mph 26.5 mph N/A Rain Light Rain
4:38 PM 41.0 °F 32.5 °F 32.0 °F 70% 29.68 in 10.0 mi NW 17.3 mph 23.0 mph N/A Rain Light Rain
4:58 PM 39.0 °F 31.0 °F 35.6 °F 88% 29.77 in 10.0 mi NW 13.8 mph - 0.01 in Rain Light Rain
5:13 PM 39.2 °F 33.6 °F 35.6 °F 87% 29.63 in 10.0 mi South 8.1 mph - N/A Rain Light Rain
5:16 PM 37.4 °F 32.8 °F 35.6 °F 93% 29.63 in 10.0 mi Variable 5.8 mph - N/A   Overcast
5:58 PM 37.2 °F 29.6 °F 32.9 °F 84% 29.70 in 10.0 mi West 11.5 mph - 0.01 in   Scattered Clouds
6:58 PM 41.5 °F 30.6 °F 31.6 °F 68% 29.72 in 10.0 mi NW 29.9 mph 41.4 mph N/A   Scattered Clouds
7:31 PM 39.2 °F 27.4 °F 30.2 °F 70% 29.66 in 10.0 mi NW 29.9 mph 40.3 mph N/A   Scattered Clouds
7:41 PM 37.4 °F 25.6 °F 30.2 °F 75% 29.65 in 10.0 mi NW 26.5 mph 35.7 mph N/A   Scattered Clouds
7:58 PM 37.0 °F 26.2 °F 29.5 °F 74% 29.73 in 10.0 mi NW 21.9 mph 29.9 mph 0.00 in   Partly Cloudy
8:58 PM 37.9 °F 27.6 °F 28.8 °F 70% 29.73 in 10.0 mi NW 20.7 mph - N/A   Mostly Cloudy
9:06 PM 39.2 °F 28.3 °F 28.4 °F 65% 29.68 in 10.0 mi NW 25.3 mph 38.0 mph N/A   Light Drizzle
9:21 PM 39.2 °F 28.3 °F 28.4 °F 65% 29.68 in 10.0 mi NW 25.3 mph 34.5 mph N/A   Mostly Cloudy
9:58 PM 35.6 °F 27.5 °F 27.9 °F 73% 29.74 in 10.0 mi WNW 11.5 mph - 0.00 in   Partly Cloudy
10:58 PM 37.0 °F 27.7 °F 25.9 °F 64% 29.75 in 10.0 mi NW 16.1 mph - N/A   Scattered Clouds
11:44 PM 39.2 °F 26.6 °F 26.6 °F 61% 29.71 in 10.0 mi NNW 34.5 mph 41.4 mph N/A Rain Light Rain
11:56 PM 37.4 °F 26.6 °F 28.4 °F 70% 29.72 in 10.0 mi NNW 21.9 mph 40.3 mph N/A   Mostly Cloudy
11:58 PM 37.4 °F 26.9 °F 28.4 °F 70% 29.75 in 10.0 mi NNW 20.7 mph - 0.00 in   Mostly Cloudy